ZHONGXING-2A

Last updated on Sun Jun 21 2026 00:03:05 GMT+0000 (Coordinated Universal Time)

1 38352U 12028A 26171.12628552 -.00000298 00000+0 00000+0 0 9990 2 38352 1.4631 83.8506 0003951 43.8835 284.3059 1.00271875 51320
UTC large
Height (km)
Speed (km/s)
/
Latitude / Longitude
Inclination (degrees)
Orbital Period (minutes)
Azimuth
Elevation
Range (km)
Doppler Factor

Next 0 passes for location: London (51.5072 / 0.1276)

No passes found over London.
ZHONGXING-2A